When you browse on this site, cookies collect data to enhance your experience and personalize the content and advertising you see.
Visit our Privacy Policy to learn more. By continuing to use the site, you agree to this use of cookies and data.
  • In Portugal
  • List of Countries
  • For 7 days
  • Water Temperature
  • Satellite Maps
  • Weather Map
  • Weather Widgets
  • user-avatar
    Login

    Hourly Weather Debalcevo

    Today, 19 February, Tuesday

    Time Temperature Precipitation Wind Pressure Humidity
    00:00 -7°C° 0 mm 3 mps 737 mmHg 89%
    01:00 -8°C° 0 mm 3 mps 737 mmHg 90%
    02:00 -8°C° 0 mm 3 mps 738 mmHg 90%
    03:00 -8°C° 0 mm 2 mps 738 mmHg 91%
    04:00 -9°C° 0 mm 2 mps 738 mmHg 92%
    05:00 -9°C° 0 mm 2 mps 738 mmHg 92%
    06:00 -9°C° 0 mm 2 mps 739 mmHg 93%
    07:00 -9°C° 0 mm 2 mps 739 mmHg 93%
    08:00 -9°C° 0 mm 2 mps 740 mmHg 93%
    09:00 -8°C° 0 mm 2 mps 740 mmHg 93%
    10:00 -7°C° 0 mm 2 mps 741 mmHg 89%
    11:00 -4°C° 0 mm 1 mps 741 mmHg 85%
    12:00 -3°C° 0 mm 1 mps 741 mmHg 81%
    13:00 -3°C° 0 mm 1 mps 741 mmHg 80%
    14:00 -2°C° 0 mm 1 mps 741 mmHg 79%
    15:00 -2°C° 0 mm 1 mps 741 mmHg 78%
    16:00 -3°C° 0 mm 1 mps 741 mmHg 81%
    17:00 -4°C° 0 mm 1 mps 741 mmHg 83%
    18:00 -6°C° 0 mm 1 mps 741 mmHg 86%
    19:00 -7°C° 0 mm 1 mps 741 mmHg 85%
    20:00 -7°C° 0 mm 1 mps 740 mmHg 85%
    21:00 -8°C° 0 mm 2 mps 740 mmHg 85%
    22:00 -8°C° 0 mm 2 mps 740 mmHg 85%
    23:00 -8°C° 0 mm 2 mps 740 mmHg 85%

    Tomorrow, 20 February, Wednesday

    Time Temperature Precipitation Wind Pressure Humidity
    00:00 -9°C° 0 mm 3 mps 740 mmHg 85%
    01:00 -9°C° 0 mm 3 mps 739 mmHg 85%
    02:00 -9°C° 0 mm 3 mps 739 mmHg 85%
    03:00 -9°C° 0 mm 3 mps 739 mmHg 84%
    04:00 -9°C° 0 mm 3 mps 738 mmHg 84%
    05:00 -9°C° 0 mm 3 mps 738 mmHg 83%
    06:00 -9°C° 0 mm 3 mps 737 mmHg 83%
    07:00 -8°C° 0 mm 3 mps 737 mmHg 83%
    08:00 -8°C° 0 mm 3 mps 737 mmHg 83%
    09:00 -8°C° 0 mm 4 mps 737 mmHg 84%
    10:00 -7°C° 0 mm 4 mps 736 mmHg 82%
    11:00 -5°C° 0 mm 5 mps 736 mmHg 81%
    12:00 -4°C° 0 mm 5 mps 736 mmHg 79%
    13:00 -2°C° 0 mm 5 mps 736 mmHg 80%
    14:00 -2°C° 0 mm 5 mps 735 mmHg 80%
    15:00 -1°C° 0 mm 4 mps 735 mmHg 81%
    16:00 -2°C° 0 mm 4 mps 734 mmHg 80%
    17:00 -3°C° 0 mm 4 mps 734 mmHg 79%
    18:00 -3°C° 0 mm 4 mps 734 mmHg 78%
    19:00 -3°C° 0 mm 4 mps 733 mmHg 79%
    20:00 -4°C° 0 mm 4 mps 733 mmHg 80%
    21:00 -5°C° 0 mm 5 mps 733 mmHg 81%
    22:00 -4°C° 0 mm 5 mps 733 mmHg 82%
    23:00 -4°C° 0 mm 5 mps 732 mmHg 84%

    Day after tomorrow, 21 February, Thursday

    Time Temperature Precipitation Wind Pressure Humidity
    00:00 -2°C° 0 mm 5 mps 732 mmHg 86%
    01:00 -2°C° 0 mm 5 mps 732 mmHg 87%
    02:00 -2°C° 0 mm 5 mps 732 mmHg 88%
    03:00 -2°C° 0 mm 5 mps 731 mmHg 89%
    04:00 -2°C° 0.1 mm 5 mps 731 mmHg 92%
    05:00 -2°C° 0.1 mm 5 mps 731 mmHg 94%
    06:00 -1°C° 0.1 mm 4 mps 731 mmHg 96%
    07:00 -1°C° 0 mm 5 mps 730 mmHg 97%
    08:00 -1°C° 0 mm 5 mps 730 mmHg 98%
    09:00 -1°C° 0 mm 5 mps 730 mmHg 99%
    10:00 -1°C° 0 mm 5 mps 730 mmHg 98%
    11:00 -1°C° 0 mm 5 mps 730 mmHg 97%
    12:00 -1°C° 0 mm 5 mps 730 mmHg 95%
    13:00 -2°C° 0.2 mm 6 mps 730 mmHg 93%
    14:00 -2°C° 0.2 mm 6 mps 730 mmHg 90%
    15:00 -2°C° 0.2 mm 6 mps 729 mmHg 87%
    16:00 -3°C° 0.1 mm 6 mps 730 mmHg 84%
    17:00 -4°C° 0.1 mm 5 mps 730 mmHg 80%
    18:00 -5°C° 0.1 mm 5 mps 730 mmHg 76%
    19:00 -5°C° 0 mm 5 mps 730 mmHg 77%
    20:00 -6°C° 0 mm 5 mps 731 mmHg 79%
    21:00 -6°C° 0 mm 5 mps 731 mmHg 80%
    22:00 -6°C° 0.1 mm 5 mps 731 mmHg 80%
    23:00 -6°C° 0.1 mm 5 mps 731 mmHg 81%

    22 February, Friday

    Time Temperature Precipitation Wind Pressure Humidity
    00:00 -6°C° 0.1 mm 5 mps 731 mmHg 81%
    01:00 -5°C° 0 mm 4 mps 731 mmHg 81%
    02:00 -7°C° 0 mm 4 mps 731 mmHg 81%
    03:00 -7°C° 0 mm 4 mps 731 mmHg 81%
    04:00 -7°C° 0 mm 4 mps 731 mmHg 80%
    05:00 -7°C° 0 mm 4 mps 731 mmHg 80%
    06:00 -8°C° 0 mm 4 mps 731 mmHg 80%
    07:00 -8°C° 0 mm 4 mps 731 mmHg 79%
    08:00 -8°C° 0 mm 4 mps 732 mmHg 79%
    09:00 -8°C° 0 mm 4 mps 732 mmHg 78%
    10:00 -7°C° 0 mm 4 mps 732 mmHg 77%
    11:00 -7°C° 0 mm 4 mps 732 mmHg 76%
    12:00 -5°C° 0 mm 4 mps 732 mmHg 75%
    13:00 -5°C° 0 mm 4 mps 732 mmHg 75%
    14:00 -5°C° 0 mm 4 mps 732 mmHg 76%
    15:00 -5°C° 0 mm 4 mps 732 mmHg 76%
    16:00 -5°C° 0.1 mm 4 mps 732 mmHg 79%
    17:00 -7°C° 0.1 mm 4 mps 733 mmHg 81%
    18:00 -6°C° 0.1 mm 3 mps 733 mmHg 84%
    19:00 -8°C° 0.1 mm 4 mps 734 mmHg 83%
    20:00 -10°C° 0.1 mm 5 mps 734 mmHg 82%
    21:00 -11°C° 0.1 mm 6 mps 735 mmHg 81%
    22:00 -12°C° 0 mm 6 mps 735 mmHg 80%
    23:00 -14°C° 0 mm 6 mps 735 mmHg 80%

    23 February, Saturday

    Time Temperature Precipitation Wind Pressure Humidity
    00:00 -15°C° 0 mm 6 mps 736 mmHg 79%
    01:00 -14°C° 0 mm 5 mps 736 mmHg 79%
    02:00 -14°C° 0 mm 5 mps 736 mmHg 79%
    03:00 -14°C° 0 mm 5 mps 737 mmHg 79%
    04:00 -15°C° 0 mm 5 mps 737 mmHg 80%
    05:00 -15°C° 0 mm 5 mps 737 mmHg 81%
    06:00 -15°C° 0 mm 5 mps 737 mmHg 82%
    07:00 -15°C° 0 mm 5 mps 738 mmHg 82%
    08:00 -15°C° 0 mm 5 mps 738 mmHg 82%
    09:00 -15°C° 0 mm 5 mps 738 mmHg 83%
    10:00 -14°C° 0 mm 5 mps 739 mmHg 81%
    11:00 -14°C° 0 mm 5 mps 739 mmHg 79%
    12:00 -13°C° 0 mm 5 mps 739 mmHg 78%
    13:00 -13°C° 0 mm 5 mps 739 mmHg 77%
    14:00 -13°C° 0 mm 5 mps 739 mmHg 76%
    15:00 -13°C° 0 mm 5 mps 739 mmHg 75%
    16:00 -13°C° 0 mm 5 mps 739 mmHg 76%
    17:00 -12°C° 0 mm 4 mps 739 mmHg 78%
    18:00 -14°C° 0 mm 4 mps 739 mmHg 80%
    19:00 -14°C° 0 mm 4 mps 740 mmHg 81%
    20:00 -14°C° 0 mm 4 mps 740 mmHg 82%
    21:00 -15°C° 0 mm 4 mps 740 mmHg 83%
    22:00 -15°C° 0 mm 4 mps 740 mmHg 83%
    23:00 -15°C° 0 mm 4 mps 740 mmHg 84%

    24 February, Sunday

    Time Temperature Precipitation Wind Pressure Humidity
    00:00 -15°C° 0 mm 4 mps 740 mmHg 84%
    01:00 -15°C° 0 mm 4 mps 740 mmHg 85%
    02:00 -15°C° 0 mm 4 mps 740 mmHg 86%
    03:00 -15°C° 0 mm 4 mps 740 mmHg 87%
    04:00 -16°C° 0 mm 4 mps 740 mmHg 87%
    05:00 -16°C° 0 mm 4 mps 740 mmHg 87%
    06:00 -16°C° 0 mm 4 mps 741 mmHg 87%
    07:00 -17°C° 0 mm 5 mps 741 mmHg 86%
    08:00 -17°C° 0 mm 5 mps 741 mmHg 85%
    09:00 -15°C° 0 mm 5 mps 741 mmHg 85%
    10:00 -15°C° 0 mm 5 mps 741 mmHg 83%
    11:00 -14°C° 0 mm 5 mps 741 mmHg 82%
    12:00 -13°C° 0 mm 5 mps 741 mmHg 80%
    13:00 -13°C° 0 mm 5 mps 741 mmHg 80%
    14:00 -12°C° 0 mm 5 mps 741 mmHg 80%
    15:00 -12°C° 0 mm 5 mps 741 mmHg 80%
    16:00 -12°C° 0 mm 5 mps 741 mmHg 82%
    17:00 -11°C° 0 mm 4 mps 741 mmHg 84%
    18:00 -11°C° 0 mm 4 mps 741 mmHg 86%
    19:00 -11°C° 0 mm 4 mps 741 mmHg 87%
    20:00 -11°C° 0 mm 4 mps 741 mmHg 88%
    21:00 -11°C° 0 mm 4 mps 741 mmHg 89%
    22:00 -11°C° 0 mm 4 mps 741 mmHg 90%
    23:00 -10°C° 0 mm 3 mps 740 mmHg 90%
    Show more